RH
98 95 96 97 95 98 98 100 100 99 70 33 33 35 32 22 41 41 37 45 47 36 36 41 57 56 58 64 67 66 76 82 90 95 82 78 88 88 88 84 91 94 89 88 89 78 79
96 97 99 98 99 96 99 96 100 99 92 47 31 37 31 23 42 38 39 47 38 37 44 55 58 54 60 71 65 77 72 77 87 85 68 66 74 87 95 90 84 89 96 84 86 84 86
98 99 99 100 99 99 100 98 98 100 100 75 30 37 36 25 43 37 42 50 38 37 54 62 61 57 58 63 68 86 75 86 93 89 71 54 67 78 83 90 80 91 92 78 82 84 82
98 94 100 100 99 100 100 100 96 97 100 88 34 34 38 27 44 38 44 48 42 46 59 63 62 58 52 56 75 80 76 81 94 92 85 78 67 72 77 83 84 90 91 98 82 81 76
100 99 90 93 99 99 98 100 100 96 97 99 46 32 40 28 46 41 40 47 52 51 58 61 58 59 60 60 67 74 73 73 74 83 72 62 72 70 68 82 89 82 98 100 88 85 81
96 96 94 83 82 97 97 99 100 100 98 99 73 30 42 30 49 43 38 45 54 57 55 59 58 52 62 65 68 70 65 65 61 60 56 60 61 72 77 73 88 97 93 91 93 87 87
100 100 99 65 66 86 97 89 100 100 100 97 88 31 44 32 52 44 40 41 51 52 57 60 62 61 65 63 67 67 63 62 63 53 78 68 80 82 83 77 67 70 78 79 78 79 86
92 96 94 95 74 97 100 96 77 99 100 99 98 39 45 34 53 46 44 54 63 59 62 60 57 64 68 64 62 62 65 63 70 73 74 68 73 80 76 64 61 60 74 70 68 75 75
95 95 93 92 92 82 98 98 62 77 94 100 99 34 46 40 55 51 49 55 61 70 70 65 61 54 63 63 62 61 65 66 73 80 75 66 70 71 66 62 60 60 63 67 71 79 74
96 93 94 92 91 80 78 98 66 89 91 100 99 47 48 56 56 58 55 57 63 73 82 56 71 55 60 66 58 60 64 67 58 78 75 74 68 70 67 65 57 64 54 54 84 86 94
94 96 93 96 94 95 50 88 54 90 100 100 99 61 50 69 71 67 65 57 58 60 62 44 71 59 66 66 61 65 58 70 70 72 64 63 76 77 71 64 59 59 57 62 82 72 73
93 99 98 98 95 93 78 86 40 61 100 100 100 66 56 73 78 73 74 52 52 82 47 77 73 80 75 66 61 67 68 64 68 63 68 69 68 76 70 63 61 51 69 83 90 84 95
95 92 93 97 99 96 87 85 24 35 97 100 100 70 63 79 76 74 69 49 88 84 63 73 82 78 71 69 65 69 72 74 76 84 87 78 72 69 70 71 59 69 83 98 98 98 92
86 82 83 96 99 97 90 86 28 36 99 99 99 68 79 87 85 70 54 80 94 47 81 56 67 67 72 69 66 71 72 86 74 67 94 96 74 79 71 69 70 82 92 93 89 95 94
84 84 86 94 99 100 92 86 55 38 99 99 94 63 100 95 88 67 69 97 75 63 71 77 73 77 74 68 62 73 80 75 67 75 81 97 83 63 71 68 64 80 93 81 98 81 90
90 96 93 99 98 97 93 86 75 71 96 98 98 92 100 94 83 82 89 93 69 62 65 65 64 72 77 74 73 78 72 63 61 66 57 70 96 72 69 73 80 73 72 91 98 96 92
98 91 99 92 93 86 84 80 74 90 98 98 100 97 100 89 85 84 98 89 67 58 56 64 72 77 68 68 75 80 70 56 57 62 60 66 89 79 94 94 87 90 89 78 78 86 91
96 99 98 98 90 87 74 71 85 96 99 99 99 98 100 93 94 92 99 90 57 60 58 62 63 64 67 64 66 81 73 72 66 62 71 67 85 90 87 88 91 86 78 75 87 90 80
98 100 96 86 98 84 66 76 91 90 99 96 98 99 100 100 98 98 90 66 58 64 63 66 68 64 63 64 62 61 63 58 53 71 76 70 96 97 88 95 90 99 87 76 77 82 89
90 90 92 96 82 77 84 90 95 93 99 95 98 98 100 100 100 94 75 55 56 58 66 65 62 59 60 63 58 60 53 60 66 83 86 75 91 92 92 91 98 100 100 82 83 98 84
79 81 89 83 92 82 92 91 92 100 100 96 93 91 96 97 95 94 64 58 63 66 55 59 60 56 62 67 60 64 51 50 67 82 89 82 79 83 87 87 90 96 98 100 99 82 83
84 98 89 93 100 100 99 91 96 100 100 100 83 73 97 88 81 93 66 52 57 61 64 59 54 48 50 60 54 58 56 57 58 71 83 89 90 96 96 70 86 92 80 91 99 98 92
90 92 100 100 99 97 99 100 98 93 99 98 81 57 46 65 82 77 59 38 47 52 46 45 55 50 46 44 52 57 54 57 72 78 78 93 97 93 84 73 92 89 82 74 77 87 94
89 80 92 96 93 100 100 99 91 99 94 93 60 46 39 57 58 48 51 46 52 36 53 46 41 41 51 52 52 58 60 64 64 64 74 87 93 95 97 93 88 58 57 68 72 75 81
92 86 91 93 59 97 100 100 100 95 95 83 58 34 28 55 44 45 48 62 48 50 54 55 56 52 52 54 74 79 87 78 80 92 79 81 90 96 96 93 76 54 60 70 86 73 64
91 83 94 94 61 94 96 100 98 87 95 70 57 37 31 42 42 40 48 45 55 67 65 64 58 53 62 79 76 89 90 85 92 95 92 86 80 84 89 98 95 75 81 68 57 69 69
95 90 81 90 67 92 96 100 95 100 90 87 53 44 30 51 64 41 45 42 48 62 77 66 60 68 68 84 95 96 86 70 94 94 91 82 85 94 96 98 82 92 89 67 63 67 83
91 80 73 85 71 93 99 100 94 100 96 76 46 41 29 54 71 54 47 46 49 49 66 67 64 71 84 86 89 93 87 81 83 75 88 93 91 86 90 100 93 89 74 74 87 87 89
83 75 66 79 66 94 99 92 100 100 85 41 35 32 28 38 81 63 60 50 49 53 49 66 57 74 68 89 97 96 94 97 84 85 63 90 81 86 85 76 83 87 79 85 93 87 87
Wind_Speed
25 25 24 24 24 26 27 26 28 27 22 22 21 20 19 18 16 11 6 7 7 6 5 4 7 13 12 9 10 19 13 7 5 3 4 5 14 7 5 7 2 11 15 6 8 16 25
29 29 25 24 24 23 26 27 28 28 24 20 21 20 18 16 14 9 4 6 4 3 3 5 7 7 14 7 16 14 10 5 3 5 10 7 7 8 4 9 10 9 12 16 10 17 19
26 28 27 27 24 25 24 27 26 28 25 21 19 19 17 15 13 7 2 4 1 1 1 4 6 7 7 10 11 13 8 4 1 3 6 5 7 8 4 12 14 6 5 8 18 13 8
30 34 29 28 28 26 24 25 26 25 26 22 19 18 17 14 11 6 1 4 0 2 1 3 5 3 2 8 9 10 9 8 4 4 6 7 2 5 4 18 9 4 5 4 12 12 8
25 29 35 37 33 31 28 24 28 26 25 23 19 17 15 13 10 7 6 4 2 4 2 1 3 1 4 3 9 9 10 10 6 3 4 4 3 3 3 5 3 1 4 6 7 10 6
30 29 28 31 38 38 33 29 25 32 26 24 19 17 14 12 8 7 7 7 6 4 5 4 2 2 4 2 6 8 7 10 6 5 5 2 1 3 3 3 3 4 5 5 6 2 5
27 27 27 30 30 31 30 32 26 27 33 24 19 17 13 11 8 7 7 6 5 3 5 3 3 3 2 4 3 8 5 5 6 5 4 7 6 4 3 4 2 5 6 10 8 8 3
29 29 30 30 26 28 27 32 31 27 33 28 21 16 12 9 8 7 7 5 5 3 1 1 2 2 3 2 1 7 7 3 6 2 6 6 3 2 5 3 3 5 6 3 6 14 5
31 29 29 30 31 28 29 29 29 30 30 25 22 16 12 8 7 8 8 6 5 2 1 3 3 1 1 1 1 4 6 3 3 4 4 3 4 5 5 3 3 2 2 1 4 10 2
32 33 32 30 31 29 29 31 22 23 27 22 23 15 12 8 7 10 9 9 6 1 4 3 3 1 1 1 1 1 3 2 2 2 0 0 4 2 2 2 1 1 3 5 8 7 3
34 34 34 32 31 32 28 32 28 18 17 31 19 15 12 13 5 9 6 11 7 2 3 2 3 2 2 2 1 1 0 1 2 0 4 4 1 1 2 2 1 3 4 5 6 4 5
38 36 35 34 34 32 30 31 28 26 21 27 22 15 13 17 11 9 8 11 6 5 5 2 3 3 2 2 1 1 2 1 1 1 2 3 3 3 3 2 1 1 5 7 5 3 2
39 39 38 36 34 31 30 30 29 30 23 20 24 14 15 14 10 12 13 14 4 3 3 3 5 4 3 4 2 3 2 2 4 3 3 5 3 3 3 1 3 3 5 2 1 3 4
41 41 42 37 36 31 29 28 25 29 21 17 17 15 18 15 10 14 22 4 2 3 5 2 3 4 4 5 3 1 1 2 4 3 3 3 5 6 4 5 5 4 6 4 6 3 2
42 40 40 39 35 30 26 26 24 23 20 19 15 15 19 15 13 21 11 2 6 5 5 8 3 3 2 3 3 3 4 4 5 9 6 4 5 2 2 1 4 4 3 6 3 1 3
40 38 40 35 32 31 24 25 22 19 18 19 19 22 16 15 18 19 3 5 4 3 3 3 3 4 5 3 4 4 3 3 3 9 5 3 3 2 3 3 1 4 6 4 0 4 4
40 39 39 29 30 30 26 24 20 14 15 24 22 9 12 17 21 9 3 6 4 4 4 4 6 4 4 4 6 4 4 1 2 3 5 3 1 3 0 5 7 3 2 2 4 2 4
40 41 28 27 25 25 29 23 20 15 19 28 18 3 22 25 6 4 3 5 4 4 2 2 3 2 4 4 3 3 4 1 9 1 4 3 3 4 8 3 1 2 2 4 3 4 1
35 33 27 17 24 28 27 26 22 21 20 34 12 5 24 27 4 3 4 3 4 3 3 2 3 3 3 4 2 4 4 3 11 4 2 1 1 2 7 2 1 3 4 7 3 2 5
28 24 17 21 27 28 30 26 23 24 21 40 12 4 7 17 4 2 4 4 3 3 3 4 3 3 3 1 2 1 3 4 4 6 8 2 3 5 5 1 2 6 3 10 11 3 5
19 17 17 25 26 25 19 26 25 27 39 37 12 6 11 6 10 7 4 6 5 5 2 6 2 3 5 4 1 2 2 3 4 7 5 2 6 6 9 9 8 9 8 9 12 11 8
16 15 22 25 27 31 23 22 32 31 50 37 9 6 9 6 15 13 4 6 8 4 5 3 4 4 4 5 5 6 4 3 1 5 3 3 2 2 5 7 7 12 9 10 12 6 13
22 20 27 24 19 16 13 24 23 27 58 25 15 10 9 7 5 9 5 5 8 10 4 2 7 5 2 1 4 6 4 5 4 4 1 2 3 2 4 4 2 3 8 11 9 10 7
22 22 22 22 20 15 21 9 30 38 59 30 15 13 5 3 4 6 6 3 5 1 7 3 7 4 4 5 4 6 5 2 1 2 2 2 1 1 3 4 2 5 0 7 12 5 11
21 21 22 22 22 20 17 10 35 36 53 34 18 9 4 3 3 6 8 6 12 9 5 5 3 5 6 4 3 3 3 3 3 5 2 3 2 2 2 3 5 1 5 3 4 1 1
22 20 22 21 20 16 7 3 29 17 51 27 16 10 2 8 1 8 6 5 4 3 3 3 6 6 5 2 2 3 3 2 2 1 4 1 1 1 2 2 2 1 7 15 2 0 9
23 21 22 21 17 12 7 13 20 26 52 35 11 15 2 8 2 8 4 5 6 5 4 4 6 4 2 2 2 2 2 3 3 5 4 2 2 2 2 3 6 4 11 12 2 3 21
23 23 21 21 16 11 7 17 20 32 56 22 18 17 7 8 7 6 7 7 5 5 4 8 5 1 2 3 3 3 2 3 1 3 5 6 5 3 3 2 6 8 5 3 4 9 15
25 24 21 20 14 13 8 13 36 52 54 19 21 17 8 8 12 18 16 11 7 5 7 10 2 4 6 4 1 2 1 1 2 2 1 3 4 2 6 4 0 3 5 4 6 9 18
Wind_Direction
313 314 315 313 315 316 317 316 321 317 320 320 323 333 336 334 329 327 332 341 339 340 6 48 29 19 26 27 350 347 351 342 0 65 13 34 53 17 95 123 86 280 281 24 46 54 42
307 306 309 306 311 310 311 315 310 323 310 313 317 324 336 332 330 321 333 346 5 352 54 53 41 30 22 29 355 0 345 318 348 144 124 60 41 19 37 112 168 271 8 13 31 33 50
296 297 309 303 305 308 301 308 310 316 306 311 310 316 329 329 329 308 337 360 19 322 90 53 31 32 27 13 357 356 5 338 120 152 114 33 41 38 60 145 188 160 329 2 20 8 39
297 289 299 305 304 304 302 298 305 312 307 304 303 311 321 326 323 287 215 24 227 243 149 22 19 56 4 14 17 10 17 26 10 82 68 114 348 16 87 127 136 138 87 41 4 359 19
319 304 289 290 295 298 298 300 296 301 310 293 297 302 316 321 312 275 221 51 19 251 148 52 21 74 338 65 30 24 11 8 15 16 62 12 31 64 126 141 97 143 105 99 338 353 32
321 324 322 303 289 288 296 302 309 283 299 289 291 294 308 312 298 269 232 205 59 14 251 270 9 110 23 29 20 10 11 20 11 351 352 42 41 112 48 42 187 143 101 131 140 215 104
321 321 323 316 322 309 305 290 304 287 284 299 282 285 299 302 284 258 233 223 261 279 46 52 79 118 73 158 23 25 11 359 355 40 10 348 72 69 352 305 292 121 118 141 165 158 125
318 316 319 319 319 318 316 299 291 303 274 291 272 275 288 287 265 243 224 201 218 176 330 358 63 98 84 55 5 22 40 47 24 33 338 10 57 331 290 322 36 51 123 111 98 158 203
314 315 316 318 320 315 317 319 290 297 295 283 270 269 279 265 248 231 211 186 154 178 244 257 271 293 128 92 117 358 29 37 49 32 37 115 308 330 27 6 15 51 217 218 124 155 243
308 310 314 314 313 316 312 313 302 301 302 274 273 256 267 228 228 224 198 191 174 75 60 240 247 222 189 133 318 60 38 49 15 146 9 126 320 346 47 306 60 193 268 180 129 138 212
304 305 308 310 311 311 314 311 312 297 310 258 270 234 252 200 226 193 192 186 176 339 14 207 181 182 172 175 137 218 61 86 130 265 80 266 328 354 178 208 323 232 19 141 156 147 119
304 301 303 302 305 307 311 310 311 290 297 259 254 228 234 207 213 203 175 163 135 44 259 182 167 198 143 190 247 169 172 197 347 81 1 253 275 215 226 274 270 114 70 46 53 41 234
295 296 296 298 296 301 306 305 307 296 299 247 240 203 222 201 211 197 164 138 57 152 347 206 199 175 192 184 203 167 183 201 169 77 328 330 248 280 213 289 329 91 65 81 279 221 223
293 295 292 290 290 294 300 302 301 299 315 246 201 200 201 191 186 178 152 73 137 198 203 244 152 152 177 151 247 160 335 278 219 154 140 171 316 179 184 202 180 167 164 158 193 201 205
294 290 286 285 282 287 293 295 294 290 315 238 192 195 195 187 175 163 155 125 221 203 173 156 60 154 225 212 145 145 221 218 223 187 175 161 270 271 205 212 151 182 171 161 115 356 61
294 288 290 278 275 281 287 287 288 291 283 223 192 180 201 181 168 167 92 246 238 186 145 114 141 169 183 188 149 183 224 208 249 193 171 214 295 234 257 163 267 178 172 131 61 192 222
293 293 282 270 268 274 284 281 272 275 262 193 183 178 187 167 161 173 200 232 247 210 164 142 192 157 202 177 169 199 228 331 310 359 188 148 116 291 117 206 188 169 183 114 134 143 182
296 290 277 263 261 266 275 270 264 265 260 182 182 167 163 158 163 187 212 205 207 155 172 100 118 132 168 152 176 222 209 307 340 131 151 205 176 248 240 230 338 320 225 182 145 203 319
291 280 289 269 261 264 272 266 259 256 217 171 179 123 163 175 188 191 250 228 185 140 171 146 160 176 162 173 194 205 138 25 29 50 26 188 305 347 317 178 340 251 190 212 131 54 203
290 282 276 268 268 271 272 260 260 224 214 180 169 143 154 203 226 184 213 169 188 184 153 147 155 119 117 201 298 195 135 42 13 13 23 7 185 191 208 215 249 271 257 223 197 193 182
297 285 274 275 278 274 266 257 229 227 193 172 190 186 176 177 210 212 244 154 142 168 164 170 68 183 162 173 236 187 85 16 40 8 31 21 257 238 263 266 213 249 246 254 228 204 190
303 290 280 285 298 299 280 237 221 237 189 181 204 161 158 165 149 185 235 197 169 148 143 198 179 166 164 165 194 192 130 227 159 9 57 12 268 60 287 262 245 250 250 241 233 235 245
294 290 300 312 312 294 261 250 271 189 180 191 211 149 148 156 143 168 202 182 190 133 28 115 152 117 142 245 103 98 116 119 145 134 61 73 23 40 275 319 212 289 226 228 234 223 204
294 292 302 310 314 286 322 301 193 177 181 180 197 165 155 154 173 180 141 113 135 120 136 100 110 105 144 124 98 81 83 97 180 264 130 109 117 199 274 307 231 248 246 224 222 236 225
288 287 298 307 316 307 331 312 181 190 186 180 187 195 159 104 184 89 107 109 104 85 81 104 87 119 148 110 79 88 356 42 81 31 182 120 95 348 352 294 285 72 1 3 170 288 55
282 277 290 298 310 300 323 225 179 206 181 177 196 206 111 125 262 125 116 147 137 110 62 86 109 135 134 95 101 147 190 182 174 97 60 132 217 264 325 324 266 111 305 324 207 110 9
276 273 277 291 306 291 263 206 190 201 183 192 218 215 180 102 56 131 122 163 140 113 107 141 158 140 148 103 102 154 205 164 182 172 171 173 235 212 260 273 287 334 306 327 147 288 327
267 270 269 281 296 269 231 203 204 204 184 190 207 202 200 106 71 116 123 125 126 148 142 154 108 272 72 87 120 216 152 209 162 198 175 169 167 208 188 234 281 345 5 65 311 344 347
257 263 262 270 285 258 222 239 208 182 179 170 170 174 181 130 113 100 94 102 100 120 130 157 132 145 157 99 113 111 119 40 136 251 313 225 196 187 185 222 204 11 117 116 23 7 4